This demonstration page uses our WeatherBlox Daily Observations layout. Learn more.

Left ArrowRight Arrow

36.17497, -115.13722

Hourly Observations for August 10, 2021

Temp ( °F °C ) Dew Point ( °F °C ) Humidity (%) Winds ( mph kmh ) Pressure ( in mb ) Visibility ( mi km ) Precip ( " mm )
12:53 am 00:53 Clear with Smoke 88 31.1 36 2.2 16 16 Calm 29.81 1009 10 16 0.00 0.00
1:53 am 01:53 Clear with Smoke 88 31.1 40 4.4 18 18 VRB 3 6 29.81 1010 10 16 0.00 0.00
2:53 am 02:53 Clear with Smoke 86 30 43 6.1 22 22 W 6 9 29.82 1010 10 16 0.00 0.00
3:53 am 03:53 Clear with Smoke 84 28.9 44 6.7 25 25 WNW 7 11 29.83 1010 10 16 0.00 0.00
4:53 am 04:53 Clear with Smoke 82 27.8 48 8.9 31 31 NNW 7 11 29.84 1010 10 16 0.00 0.00
5:53 am 05:53 Clear with Smoke 83 28.3 44 6.7 25 25 NNW 8 13 29.85 1011 10 16 0.00 0.00
6:53 am 06:53 Sunny with Smoke 84 28.9 45 7.2 25 25 NNW 5 7 29.89 1012 10 16 0.00 0.00
7:53 am 07:53 Sunny with Smoke 89 31.7 53 11.7 29 29 N 5 7 29.90 1013 10 16 0.00 0.00
8:53 am 08:53 Sunny with Smoke 92 33.3 53 11.7 27 27 SE 6 9 29.91 1013 10 16 0.00 0.00
9:53 am 09:53 Sunny with Smoke 95 35 52 11.1 23 23 ESE 9 15 29.92 1013 10 16 0.00 0.00
10:53 am 10:53 Sunny with Smoke 96 35.6 50 10 21 21 VRB 7 11 29.92 1013 10 16 0.00 0.00
11:53 am 11:53 Sunny with Smoke 100 37.8 48 8.9 17 17 SSW 8 13 29.90 1013 10 16 0.00 0.00
12:53 pm 12:53 Sunny with Smoke 101 38.3 51 10.6 19 19 SE 6 9 29.88 1012 10 16 0.00 0.00
1:53 pm 13:53 Sunny with Smoke 104 40 52 11.1 18 18 ESE 9 15 29.85 1011 10 16 0.00 0.00
2:53 pm 14:53 Sunny with Smoke 105 40.6 43 6.1 12 12 SSE 12 19 29.83 1010 10 16 0.00 0.00
3:53 pm 15:53 Sunny with Smoke 106 41.1 47 8.3 14 14 E 7 11 29.81 1010 10 16 0.00 0.00
4:53 pm 16:53 Sunny with Smoke 104 40 51 10.6 17 17 SE 8 13 29.80 1009 10 16 0.00 0.00
5:53 pm 17:53 Sunny with Smoke 104 40 50 10 16 16 SSE 12 19 29.79 1009 10 16 0.00 0.00
6:53 pm 18:53 Sunny with Smoke 103 39.4 52 11.1 18 18 SSE 12 19 29.79 1009 10 16 0.00 0.00
7:53 pm 19:53 Clear with Smoke 100 37.8 54 12.2 21 21 SE 17 28 29.80 1009 10 16 0.00 0.00
8:53 pm 20:53 Clear with Smoke 99 37.2 53 11.7 21 21 S 13 20 29.83 1010 10 16 0.00 0.00
9:53 pm 21:53 Clear with Smoke 94 34.4 58 14.4 30 30 SE 18 30 29.86 1011 10 16 0.00 0.00
10:53 pm 22:53 Clear with Smoke 92 33.3 56 13.3 30 30 SSE 13 20 29.88 1012 10 16 0.00 0.00
11:53 pm 23:53 Clear with Smoke 88 31.1 55 12.8 33 33 E 9 15 29.88 1012 10 16 0.00 0.00

Powered by AerisWeather